Time,TemperatureF,DewpointF,PressureIn,WindDirection,WindDirectionDegrees,WindSpeedMPH,WindSpeedGustMPH,Humidity,HourlyPrecipIn,Conditions,Clouds,dailyrainin,SoftwareType,DateUTC
2013-04-19 16:07:00,54.7,43.0,29.89,NNE,24,3.0,5.0,64,0.00,,,1.29,weatherlink.com 1.10,2013-04-19 20:07:00,
2013-04-19 18:06:00,53.8,41.0,29.89,NW,310,0.0,5.0,62,0.00,,,1.29,weatherlink.com 1.10,2013-04-19 22:06:00,
2013-04-19 18:12:00,53.6,42.0,29.54,NW,323,3.0,5.0,64,0.00,,,1.29,weatherlink.com 1.10,2013-04-19 22:12:00,
2013-04-19 18:27:00,54.4,41.0,29.54,NW,309,3.0,5.0,60,0.00,,,1.29,weatherlink.com 1.10,2013-04-19 22:27:00,
2013-04-19 18:42:00,53.7,39.0,29.90,South,175,0.0,6.0,59,0.00,,,1.29,weatherlink.com 1.10,2013-04-19 22:42:00,
2013-04-19 18:57:00,53.0,39.0,29.91,NW,304,0.0,5.0,59,0.00,,,1.29,weatherlink.com 1.10,2013-04-19 22:57:00,
2013-04-19 19:12:00,51.8,39.0,29.92,West,265,0.0,4.0,62,0.00,,,1.29,weatherlink.com 1.10,2013-04-19 23:12:00,
2013-04-19 19:27:00,51.5,39.0,29.92,NNW,330,0.0,4.0,63,0.00,,,1.29,weatherlink.com 1.10,2013-04-19 23:27:00,
2013-04-19 19:42:00,51.3,39.0,29.93,NE,45,0.0,3.0,63,0.00,,,1.29,weatherlink.com 1.10,2013-04-19 23:42:00,
2013-04-19 19:57:00,51.3,39.0,29.93,South,183,0.0,3.0,63,0.00,,,1.29,weatherlink.com 1.10,2013-04-19 23:57:00,
2013-04-19 20:12:00,50.9,39.0,29.94,NNW,334,0.0,3.0,64,0.00,,,1.29,weatherlink.com 1.10,2013-04-20 00:12:00,
2013-04-19 20:27:00,50.3,38.0,29.95,NNW,344,0.0,3.0,64,0.00,,,1.29,weatherlink.com 1.10,2013-04-20 00:27:00,
2013-04-19 20:42:00,49.9,37.0,29.96,ENE,69,1.0,11.0,61,0.00,,,1.29,weatherlink.com 1.10,2013-04-20 00:42:00,
2013-04-19 20:57:00,49.4,36.0,29.97,NNW,331,0.0,4.0,61,0.00,,,1.29,weatherlink.com 1.10,2013-04-20 00:57:00,
2013-04-19 21:13:00,49.0,35.0,29.99,NNW,327,0.0,8.0,60,0.00,,,1.29,weatherlink.com 1.10,2013-04-20 01:13:00,
2013-04-19 22:13:00,46.7,36.0,30.03,NNW,331,1.0,1.0,66,0.00,,,1.29,weatherlink.com 1.10,2013-04-20 02:13:00,
2013-04-19 22:28:00,46.6,35.0,30.04,WNW,298,0.0,3.0,64,0.00,,,1.29,weatherlink.com 1.10,2013-04-20 02:28:00,
2013-04-19 22:43:00,46.5,35.0,30.05,West,276,0.0,2.0,64,0.00,,,1.29,weatherlink.com 1.10,2013-04-20 02:43:00,
2013-04-19 22:58:00,46.1,36.0,30.06,West,275,0.0,2.0,67,0.00,,,1.29,weatherlink.com 1.10,2013-04-20 02:58:00,
2013-04-19 23:13:00,45.7,34.0,30.06,NNW,327,2.0,4.0,65,0.00,,,1.29,weatherlink.com 1.10,2013-04-20 03:13:00,
2013-04-19 23:43:00,45.2,33.0,30.08,NW,324,2.0,5.0,63,0.00,,,1.29,weatherlink.com 1.10,2013-04-20 03:43:00,
2013-04-19 23:58:00,44.8,33.0,30.08,WNW,294,1.0,5.0,64,0.00,,,1.29,weatherlink.com 1.10,2013-04-20 03:58:00,